Time,TemperatureF,DewpointF,PressureIn,WindDirection,WindDirectionDegrees,WindSpeedMPH,WindSpeedGustMPH,Humidity,HourlyPrecipIn,Conditions,Clouds,dailyrainin,SolarRadiationWatts/m^2,SoftwareType,DateUTC
2013-08-31 00:00:00,70.7,69.8,29.84,South,185,0.0,0.0,97,0.00,,,0.00,1782,WeatherCatV1.15B25,2013-08-31 04:00:00,
2013-08-31 00:05:00,70.7,69.8,29.84,East,101,0.0,1.0,97,0.00,,,0.00,1782,WeatherCatV1.15B25,2013-08-31 04:05:00,
2013-08-31 00:10:00,70.6,69.7,29.84,East,92,0.0,2.0,97,0.00,,,0.00,1782,WeatherCatV1.15B25,2013-08-31 04:10:00,
2013-08-31 00:15:00,70.6,69.7,29.83,ESE,120,0.0,0.0,97,0.00,,,0.00,1782,WeatherCatV1.15B25,2013-08-31 04:15:00,
2013-08-31 00:20:00,70.5,69.6,29.83,SW,217,0.0,0.0,97,0.00,,,0.00,1782,WeatherCatV1.15B25,2013-08-31 04:20:00,
2013-08-31 00:25:00,70.4,69.5,29.84,SSE,164,0.0,0.0,97,0.00,,,0.00,1782,WeatherCatV1.15B25,2013-08-31 04:25:00,
2013-08-31 00:30:00,70.4,69.5,29.83,SW,220,0.0,1.0,97,0.00,,,0.00,1782,WeatherCatV1.15B25,2013-08-31 04:30:00,
2013-08-31 00:35:00,70.3,69.4,29.83,WSW,249,0.0,1.0,97,0.00,,,0.00,1782,WeatherCatV1.15B25,2013-08-31 04:35:00,
2013-08-31 00:40:00,70.2,69.3,29.83,SW,220,0.0,0.0,97,0.00,,,0.00,1782,WeatherCatV1.15B25,2013-08-31 04:40:00,
2013-08-31 00:45:00,70.1,69.5,29.83,WSW,238,0.0,2.0,98,0.00,,,0.00,1782,WeatherCatV1.15B25,2013-08-31 04:45:00,
2013-08-31 00:50:00,70.0,69.4,29.83,WSW,243,0.0,0.0,98,0.00,,,0.00,1782,WeatherCatV1.15B25,2013-08-31 04:50:00,
2013-08-31 00:55:00,70.0,69.4,29.83,NW,312,0.0,0.0,98,0.00,,,0.00,1782,WeatherCatV1.15B25,2013-08-31 04:55:00,
2013-08-31 01:00:00,69.9,69.3,29.83,WNW,287,0.0,0.0,98,0.00,,,0.00,1782,WeatherCatV1.15B25,2013-08-31 05:00:00,
2013-08-31 01:05:00,69.8,69.2,29.83,WNW,283,0.0,0.0,98,0.00,,,0.00,1782,WeatherCatV1.15B25,2013-08-31 05:05:00,
2013-08-31 01:10:00,69.8,69.5,29.83,West,269,0.0,0.0,99,0.00,,,0.00,1782,WeatherCatV1.15B25,2013-08-31 05:10:00,
2013-08-31 01:15:00,69.7,69.1,29.83,WSW,250,0.0,1.0,98,0.00,,,0.00,1782,WeatherCatV1.15B25,2013-08-31 05:15:00,
2013-08-31 01:20:00,69.7,69.1,29.83,WSW,246,0.0,0.0,98,0.00,,,0.00,1782,WeatherCatV1.15B25,2013-08-31 05:20:00,
2013-08-31 01:25:00,69.7,69.1,29.83,WSW,240,0.0,3.0,98,0.00,,,0.00,1781,WeatherCatV1.15B25,2013-08-31 05:25:00,
2013-08-31 01:30:00,69.5,68.9,29.83,SSW,208,0.0,1.0,98,0.00,,,0.00,1781,WeatherCatV1.15B25,2013-08-31 05:30:00,
2013-08-31 01:35:00,69.5,69.2,29.83,WSW,247,0.0,0.0,99,0.00,,,0.00,1781,WeatherCatV1.15B25,2013-08-31 05:35:00,
2013-08-31 01:40:00,69.4,69.1,29.83,WSW,256,0.0,1.0,99,0.00,,,0.00,1781,WeatherCatV1.15B25,2013-08-31 05:40:00,
2013-08-31 01:45:00,69.4,69.1,29.83,West,269,0.0,0.0,99,0.00,,,0.00,1779,WeatherCatV1.15B25,2013-08-31 05:45:00,
2013-08-31 01:50:00,69.3,69.0,29.83,West,273,0.0,0.0,99,0.00,,,0.00,1779,WeatherCatV1.15B25,2013-08-31 05:50:00,
2013-08-31 01:55:00,69.3,69.0,29.83,WSW,256,0.0,0.0,99,0.00,,,0.00,1779,WeatherCatV1.15B25,2013-08-31 05:55:00,
2013-08-31 02:00:00,69.3,69.0,29.82,West,277,0.0,0.0,99,0.00,,,0.00,1779,WeatherCatV1.15B25,2013-08-31 06:00:00,
2013-08-31 02:05:00,69.3,69.0,29.82,West,267,0.0,0.0,99,0.00,,,0.00,1777,WeatherCatV1.15B25,2013-08-31 06:05:00,
2013-08-31 02:10:00,69.3,69.0,29.82,West,259,0.0,1.0,99,0.00,,,0.00,1777,WeatherCatV1.15B25,2013-08-31 06:10:00,
2013-08-31 02:15:00,69.3,69.0,29.82,WSW,245,0.0,0.0,99,0.00,,,0.00,1777,WeatherCatV1.15B25,2013-08-31 06:15:00,
2013-08-31 02:20:00,69.3,69.0,29.82,WSW,246,0.0,0.0,99,0.00,,,0.00,1775,WeatherCatV1.15B25,2013-08-31 06:20:00,
2013-08-31 02:25:00,69.3,69.0,29.82,WSW,250,0.0,0.0,99,0.00,,,0.00,1775,WeatherCatV1.15B25,2013-08-31 06:25:00,
2013-08-31 02:30:00,69.3,69.0,29.82,WSW,252,0.0,0.0,99,0.00,,,0.00,1775,WeatherCatV1.15B25,2013-08-31 06:30:00,
2013-08-31 02:35:00,69.2,68.9,29.82,WSW,253,0.0,0.0,99,0.00,,,0.00,1774,WeatherCatV1.15B25,2013-08-31 06:35:00,
2013-08-31 02:40:00,69.2,68.9,29.82,WSW,253,0.0,0.0,99,0.00,,,0.00,1774,WeatherCatV1.15B25,2013-08-31 06:40:00,
2013-08-31 02:45:00,69.1,68.8,29.82,West,266,0.0,1.0,99,0.00,,,0.00,1774,WeatherCatV1.15B25,2013-08-31 06:45:00,
2013-08-31 02:50:00,69.0,68.7,29.82,NNE,22,0.0,0.0,99,0.00,,,0.00,1772,WeatherCatV1.15B25,2013-08-31 06:50:00,
2013-08-31 02:55:00,69.1,68.8,29.81,NNE,15,0.0,1.0,99,0.00,,,0.00,1770,WeatherCatV1.15B25,2013-08-31 06:55:00,
2013-08-31 03:00:00,69.1,68.8,29.81,West,277,0.0,0.0,99,0.00,,,0.00,1767,WeatherCatV1.15B25,2013-08-31 07:00:00,
2013-08-31 03:05:00,69.2,68.9,29.82,WSW,243,0.0,0.0,99,0.00,,,0.00,1767,WeatherCatV1.15B25,2013-08-31 07:05:00,
2013-08-31 03:10:00,69.2,68.9,29.82,WSW,241,0.0,0.0,99,0.00,,,0.00,1765,WeatherCatV1.15B25,2013-08-31 07:10:00,
2013-08-31 03:15:00,69.3,69.0,29.81,WSW,245,0.0,0.0,99,0.00,,,0.00,1765,WeatherCatV1.15B25,2013-08-31 07:15:00,
2013-08-31 03:20:00,69.3,69.0,29.82,SSW,210,0.0,0.0,99,0.00,,,0.00,1765,WeatherCatV1.15B25,2013-08-31 07:20:00,
2013-08-31 03:25:00,69.3,68.7,29.81,SE,126,0.0,1.0,98,0.00,,,0.00,1765,WeatherCatV1.15B25,2013-08-31 07:25:00,
2013-08-31 03:30:00,69.3,68.7,29.81,South,173,0.0,0.0,98,0.00,,,0.00,1765,WeatherCatV1.15B25,2013-08-31 07:30:00,
2013-08-31 03:35:00,69.4,68.8,29.81,SW,234,0.0,0.0,98,0.00,,,0.00,1763,WeatherCatV1.15B25,2013-08-31 07:35:00,
2013-08-31 03:40:00,69.4,68.8,29.81,NW,306,0.0,0.0,98,0.00,,,0.00,1763,WeatherCatV1.15B25,2013-08-31 07:40:00,
2013-08-31 03:45:00,69.4,68.8,29.81,NW,324,0.0,0.0,98,0.00,,,0.00,1763,WeatherCatV1.15B25,2013-08-31 07:45:00,
2013-08-31 03:50:00,69.5,68.9,29.82,NNW,341,0.0,0.0,98,0.00,,,0.00,1763,WeatherCatV1.15B25,2013-08-31 07:50:00,
2013-08-31 03:55:00,69.5,68.9,29.81,NNW,346,0.0,0.0,98,0.00,,,0.00,1763,WeatherCatV1.15B25,2013-08-31 07:55:00,
2013-08-31 04:00:00,69.6,69.0,29.81,WNW,302,0.0,0.0,98,0.00,,,0.00,1761,WeatherCatV1.15B25,2013-08-31 08:00:00,
2013-08-31 04:05:00,69.6,69.0,29.81,WNW,289,0.0,1.0,98,0.00,,,0.00,1761,WeatherCatV1.15B25,2013-08-31 08:05:00,
2013-08-31 04:10:00,69.6,69.0,29.81,WNW,286,0.0,0.0,98,0.00,,,0.00,1761,WeatherCatV1.15B25,2013-08-31 08:10:00,
2013-08-31 04:15:00,69.7,68.8,29.81,WSW,258,0.0,0.0,97,0.00,,,0.00,1761,WeatherCatV1.15B25,2013-08-31 08:15:00,
2013-08-31 04:20:00,69.7,69.1,29.81,WSW,246,0.0,0.0,98,0.00,,,0.00,1761,WeatherCatV1.15B25,2013-08-31 08:20:00,
2013-08-31 04:25:00,69.8,68.9,29.81,WSW,238,0.0,0.0,97,0.00,,,0.00,1760,WeatherCatV1.15B25,2013-08-31 08:25:00,
2013-08-31 04:30:00,69.8,68.9,29.81,SW,217,0.0,0.0,97,0.00,,,0.00,1760,WeatherCatV1.15B25,2013-08-31 08:30:00,
2013-08-31 04:35:00,69.7,68.8,29.81,SSW,208,0.0,0.0,97,0.00,,,0.00,1760,WeatherCatV1.15B25,2013-08-31 08:35:00,
2013-08-31 04:40:00,69.7,68.8,29.81,SSW,204,0.0,0.0,97,0.00,,,0.00,1760,WeatherCatV1.15B25,2013-08-31 08:40:00,
2013-08-31 04:45:00,69.6,68.7,29.81,SSW,203,0.0,0.0,97,0.00,,,0.00,1760,WeatherCatV1.15B25,2013-08-31 08:45:00,
2013-08-31 04:50:00,69.6,68.7,29.81,SW,221,0.0,2.0,97,0.00,,,0.00,1760,WeatherCatV1.15B25,2013-08-31 08:50:00,
2013-08-31 04:55:00,69.5,68.6,29.81,WSW,255,0.0,0.0,97,0.00,,,0.00,1760,WeatherCatV1.15B25,2013-08-31 08:55:00,
2013-08-31 05:00:00,69.4,68.5,29.82,West,265,0.0,0.0,97,0.00,,,0.00,1760,WeatherCatV1.15B25,2013-08-31 09:00:00,
2013-08-31 05:05:00,69.4,68.5,29.82,West,269,0.0,0.0,97,0.00,,,0.00,1760,WeatherCatV1.15B25,2013-08-31 09:05:00,
2013-08-31 05:10:00,69.3,68.7,29.82,West,259,0.0,2.0,98,0.00,,,0.00,1760,WeatherCatV1.15B25,2013-08-31 09:10:00,
2013-08-31 05:15:00,69.3,68.7,29.82,WSW,249,0.0,0.0,98,0.00,,,0.00,1760,WeatherCatV1.15B25,2013-08-31 09:15:00,
2013-08-31 05:20:00,69.2,68.6,29.81,West,266,0.0,0.0,98,0.00,,,0.00,1760,WeatherCatV1.15B25,2013-08-31 09:20:00,
2013-08-31 05:25:00,69.2,68.6,29.81,West,277,0.0,0.0,98,0.00,,,0.00,1760,WeatherCatV1.15B25,2013-08-31 09:25:00,
2013-08-31 05:30:00,69.1,68.5,29.81,WNW,282,0.0,0.0,98,0.00,,,0.00,1760,WeatherCatV1.15B25,2013-08-31 09:30:00,
2013-08-31 05:35:00,69.0,68.4,29.81,West,271,0.0,0.0,98,0.00,,,0.00,1760,WeatherCatV1.15B25,2013-08-31 09:35:00,
2013-08-31 05:40:00,69.0,68.4,29.81,SE,135,0.0,1.0,98,0.00,,,0.00,1760,WeatherCatV1.15B25,2013-08-31 09:40:00,
2013-08-31 05:45:00,69.0,68.4,29.81,SSE,153,0.0,1.0,98,0.00,,,0.00,1760,WeatherCatV1.15B25,2013-08-31 09:45:00,
2013-08-31 05:50:00,69.1,68.5,29.81,South,186,0.0,0.0,98,0.00,,,0.00,1760,WeatherCatV1.15B25,2013-08-31 09:50:00,
2013-08-31 06:00:00,69.1,68.5,29.81,South,184,0.0,0.0,98,0.00,,,0.00,1760,WeatherCatV1.15B25,2013-08-31 10:00:00,
2013-08-31 06:05:00,69.0,68.4,29.81,WSW,248,0.0,0.0,98,0.00,,,0.01,1760,WeatherCatV1.15B25,2013-08-31 10:05:00,
2013-08-31 06:10:00,69.0,68.4,29.81,ENE,76,0.0,1.0,98,0.00,,,0.01,1760,WeatherCatV1.15B25,2013-08-31 10:10:00,
2013-08-31 06:15:00,68.9,68.3,29.81,ESE,112,0.0,2.0,98,0.00,,,0.01,1760,WeatherCatV1.15B25,2013-08-31 10:15:00,
2013-08-31 06:20:00,68.9,68.3,29.81,ESE,112,0.0,0.0,98,0.00,,,0.01,1760,WeatherCatV1.15B25,2013-08-31 10:20:00,
2013-08-31 06:25:00,68.8,68.2,29.81,ESE,112,0.0,0.0,98,0.00,,,0.01,1760,WeatherCatV1.15B25,2013-08-31 10:25:00,
2013-08-31 06:30:00,68.8,68.5,29.81,ESE,112,0.0,0.0,99,0.00,,,0.01,1758,WeatherCatV1.15B25,2013-08-31 10:30:00,
2013-08-31 06:35:00,68.7,68.4,29.81,ESE,111,0.0,0.0,99,0.00,,,0.01,1758,WeatherCatV1.15B25,2013-08-31 10:35:00,
2013-08-31 06:40:00,68.7,68.4,29.81,ESE,121,0.0,0.0,99,0.00,,,0.01,1758,WeatherCatV1.15B25,2013-08-31 10:40:00,
2013-08-31 06:45:00,68.6,68.3,29.81,West,266,0.0,0.0,99,0.00,,,0.01,1758,WeatherCatV1.15B25,2013-08-31 10:45:00,
2013-08-31 06:50:00,68.6,68.3,29.81,West,266,0.0,0.0,99,0.00,,,0.01,1758,WeatherCatV1.15B25,2013-08-31 10:50:00,
2013-08-31 06:55:00,68.5,68.2,29.81,West,274,2.0,2.0,99,0.00,,,0.01,1758,WeatherCatV1.15B25,2013-08-31 10:55:00,
2013-08-31 07:00:00,68.5,68.2,29.81,WSW,244,0.0,0.0,99,0.00,,,0.01,1758,WeatherCatV1.15B25,2013-08-31 11:00:00,
2013-08-31 07:05:00,68.5,68.2,29.81,WSW,244,0.0,0.0,99,0.00,,,0.01,1758,WeatherCatV1.15B25,2013-08-31 11:05:00,
2013-08-31 07:10:00,68.5,68.2,29.81,WSW,244,0.0,0.0,99,0.00,,,0.01,1758,WeatherCatV1.15B25,2013-08-31 11:10:00,
2013-08-31 07:15:00,68.6,68.3,29.81,WSW,244,0.0,0.0,99,0.00,,,0.01,1756,WeatherCatV1.15B25,2013-08-31 11:15:00,
2013-08-31 07:20:00,68.6,68.3,29.81,WSW,244,0.0,0.0,99,0.00,,,0.01,1756,WeatherCatV1.15B25,2013-08-31 11:20:00,
2013-08-31 07:25:00,68.6,68.3,29.81,WSW,244,0.0,0.0,99,0.00,,,0.01,1756,WeatherCatV1.15B25,2013-08-31 11:25:00,
2013-08-31 07:30:00,68.7,68.4,29.81,WSW,243,0.0,0.0,99,0.00,,,0.01,1756,WeatherCatV1.15B25,2013-08-31 11:30:00,
2013-08-31 07:35:00,68.8,68.8,29.81,WSW,242,1.0,1.0,100,0.00,,,0.01,1756,WeatherCatV1.15B25,2013-08-31 11:35:00,
2013-08-31 07:40:00,68.8,68.8,29.81,WSW,243,0.0,0.0,100,0.00,,,0.01,1754,WeatherCatV1.15B25,2013-08-31 11:40:00,
2013-08-31 07:45:00,68.9,68.9,29.81,WSW,243,0.0,0.0,100,0.00,,,0.01,1754,WeatherCatV1.15B25,2013-08-31 11:45:00,
2013-08-31 07:50:00,69.0,68.7,29.81,WSW,242,0.0,0.0,99,0.00,,,0.01,1754,WeatherCatV1.15B25,2013-08-31 11:50:00,
2013-08-31 07:55:00,69.1,68.8,29.81,WSW,255,0.0,1.0,99,0.00,,,0.01,1754,WeatherCatV1.15B25,2013-08-31 11:55:00,
2013-08-31 08:00:00,69.2,68.9,29.81,WSW,254,0.0,0.0,99,0.00,,,0.01,1753,WeatherCatV1.15B25,2013-08-31 12:00:00,
2013-08-31 08:05:00,69.2,68.9,29.82,WSW,255,0.0,0.0,99,0.00,,,0.01,1753,WeatherCatV1.15B25,2013-08-31 12:05:00,
2013-08-31 08:10:00,69.3,69.0,29.82,WSW,255,0.0,0.0,99,0.00,,,0.01,1753,WeatherCatV1.15B25,2013-08-31 12:10:00,
2013-08-31 08:15:00,69.3,69.0,29.82,WSW,254,0.0,0.0,99,0.00,,,0.01,1753,WeatherCatV1.15B25,2013-08-31 12:15:00,
2013-08-31 08:20:00,69.4,69.1,29.82,WSW,254,0.0,0.0,99,0.00,,,0.01,1753,WeatherCatV1.15B25,2013-08-31 12:20:00,
2013-08-31 08:25:00,69.4,69.1,29.82,SW,236,0.0,3.0,99,0.00,,,0.01,1751,WeatherCatV1.15B25,2013-08-31 12:25:00,
2013-08-31 08:30:00,69.5,69.2,29.82,SW,225,0.0,0.0,99,0.00,,,0.01,1751,WeatherCatV1.15B25,2013-08-31 12:30:00,
2013-08-31 08:35:00,69.6,69.3,29.83,WSW,244,0.0,0.0,99,0.00,,,0.01,1751,WeatherCatV1.15B25,2013-08-31 12:35:00,
2013-08-31 08:40:00,69.7,69.4,29.83,WSW,244,0.0,0.0,99,0.00,,,0.01,1751,WeatherCatV1.15B25,2013-08-31 12:40:00,
2013-08-31 08:45:00,69.8,69.5,29.83,WSW,241,0.0,0.0,99,0.00,,,0.01,1749,WeatherCatV1.15B25,2013-08-31 12:45:00,
2013-08-31 08:50:00,70.0,69.7,29.83,South,190,0.0,1.0,99,0.00,,,0.01,1749,WeatherCatV1.15B25,2013-08-31 12:50:00,
2013-08-31 08:55:00,70.1,69.8,29.83,SSW,196,0.0,0.0,99,0.00,,,0.01,1749,WeatherCatV1.15B25,2013-08-31 12:55:00,
2013-08-31 09:00:00,70.1,69.8,29.83,SSW,197,0.0,0.0,99,0.00,,,0.01,1749,WeatherCatV1.15B25,2013-08-31 13:00:00,
2013-08-31 09:05:00,70.3,70.0,29.83,SSW,197,0.0,0.0,99,0.00,,,0.01,1749,WeatherCatV1.15B25,2013-08-31 13:05:00,
2013-08-31 09:10:00,70.4,69.8,29.83,SSW,197,0.0,0.0,98,0.00,,,0.01,1747,WeatherCatV1.15B25,2013-08-31 13:10:00,
2013-08-31 09:15:00,70.6,70.3,29.83,SSW,200,0.0,0.0,99,0.00,,,0.01,1747,WeatherCatV1.15B25,2013-08-31 13:15:00,
2013-08-31 09:20:00,70.8,70.2,29.82,WSW,252,0.0,1.0,98,0.00,,,0.01,1747,WeatherCatV1.15B25,2013-08-31 13:20:00,
2013-08-31 09:25:00,71.1,70.5,29.82,WSW,252,0.0,0.0,98,0.00,,,0.01,1746,WeatherCatV1.15B25,2013-08-31 13:25:00,
2013-08-31 09:30:00,71.3,70.7,29.82,SW,226,0.0,0.0,98,0.00,,,0.01,1746,WeatherCatV1.15B25,2013-08-31 13:30:00,
2013-08-31 09:35:00,71.5,70.6,29.82,WSW,246,0.0,0.0,97,0.00,,,0.01,1744,WeatherCatV1.15B25,2013-08-31 13:35:00,
2013-08-31 09:40:00,71.7,70.8,29.82,WSW,240,0.0,0.0,97,0.00,,,0.01,1744,WeatherCatV1.15B25,2013-08-31 13:40:00,
2013-08-31 09:45:00,71.9,71.0,29.82,WSW,244,0.0,0.0,97,0.00,,,0.01,1744,WeatherCatV1.15B25,2013-08-31 13:45:00,
2013-08-31 09:50:00,72.2,71.3,29.82,SW,234,0.0,0.0,97,0.00,,,0.01,1742,WeatherCatV1.15B25,2013-08-31 13:50:00,
2013-08-31 09:55:00,72.5,71.3,29.82,SW,233,0.0,3.0,96,0.00,,,0.01,1742,WeatherCatV1.15B25,2013-08-31 13:55:00,
2013-08-31 10:00:00,72.7,71.5,29.82,SW,232,0.0,0.0,96,0.00,,,0.01,1742,WeatherCatV1.15B25,2013-08-31 14:00:00,
2013-08-31 10:05:00,73.0,71.8,29.82,SW,215,0.0,0.0,96,0.00,,,0.01,1742,WeatherCatV1.15B25,2013-08-31 14:05:00,
2013-08-31 10:10:00,73.1,71.9,29.82,SW,215,0.0,0.0,96,0.00,,,0.01,1740,WeatherCatV1.15B25,2013-08-31 14:10:00,
2013-08-31 10:15:00,73.3,71.8,29.82,West,269,0.0,0.0,95,0.00,,,0.01,1740,WeatherCatV1.15B25,2013-08-31 14:15:00,
2013-08-31 10:20:00,73.5,72.0,29.83,WSW,246,0.0,1.0,95,0.00,,,0.01,1740,WeatherCatV1.15B25,2013-08-31 14:20:00,
2013-08-31 10:25:00,73.6,72.1,29.83,West,277,0.0,0.0,95,0.00,,,0.01,1740,WeatherCatV1.15B25,2013-08-31 14:25:00,
2013-08-31 10:30:00,73.6,72.1,29.83,SW,234,0.0,0.0,95,0.00,,,0.01,1740,WeatherCatV1.15B25,2013-08-31 14:30:00,
2013-08-31 10:35:00,73.7,72.2,29.83,SW,234,0.0,0.0,95,0.00,,,0.01,1740,WeatherCatV1.15B25,2013-08-31 14:35:00,
2013-08-31 10:40:00,73.7,72.2,29.83,SW,234,0.0,0.0,95,0.00,,,0.01,1742,WeatherCatV1.15B25,2013-08-31 14:40:00,
2013-08-31 10:45:00,73.8,72.3,29.83,West,267,0.0,2.0,95,0.00,,,0.01,1740,WeatherCatV1.15B25,2013-08-31 14:45:00,
2013-08-31 10:50:00,73.9,72.4,29.82,West,267,0.0,0.0,95,0.00,,,0.01,1742,WeatherCatV1.15B25,2013-08-31 14:50:00,
2013-08-31 10:55:00,74.1,72.6,29.82,SW,230,0.0,0.0,95,0.00,,,0.01,1742,WeatherCatV1.15B25,2013-08-31 14:55:00,
2013-08-31 11:00:00,74.3,72.8,29.82,SSE,165,0.0,1.0,95,0.00,,,0.01,1742,WeatherCatV1.15B25,2013-08-31 15:00:00,
2013-08-31 11:05:00,74.6,72.8,29.82,WSW,240,0.0,1.0,94,0.00,,,0.01,1742,WeatherCatV1.15B25,2013-08-31 15:05:00,
2013-08-31 11:10:00,74.9,73.1,29.82,WSW,240,0.0,0.0,94,0.00,,,0.01,1742,WeatherCatV1.15B25,2013-08-31 15:10:00,
2013-08-31 11:15:00,75.3,73.1,29.82,WSW,240,0.0,0.0,93,0.00,,,0.01,1740,WeatherCatV1.15B25,2013-08-31 15:15:00,
2013-08-31 11:20:00,75.4,73.2,29.82,WSW,241,0.0,1.0,93,0.00,,,0.01,1740,WeatherCatV1.15B25,2013-08-31 15:20:00,
2013-08-31 11:25:00,75.4,73.2,29.82,WSW,246,0.0,0.0,93,0.00,,,0.01,1740,WeatherCatV1.15B25,2013-08-31 15:25:00,
2013-08-31 11:30:00,75.5,73.3,29.82,WSW,246,0.0,0.0,93,0.00,,,0.01,1742,WeatherCatV1.15B25,2013-08-31 15:30:00,
2013-08-31 11:35:00,75.5,73.0,29.82,WSW,245,0.0,0.0,92,0.00,,,0.01,1742,WeatherCatV1.15B25,2013-08-31 15:35:00,
2013-08-31 11:40:00,75.6,73.1,29.81,WSW,246,0.0,0.0,92,0.00,,,0.01,1742,WeatherCatV1.15B25,2013-08-31 15:40:00,
2013-08-31 11:45:00,75.5,73.0,29.81,WSW,246,0.0,1.0,92,0.00,,,0.01,1742,WeatherCatV1.15B25,2013-08-31 15:45:00,
2013-08-31 11:50:00,75.5,73.0,29.81,WSW,246,0.0,0.0,92,0.00,,,0.01,1744,WeatherCatV1.15B25,2013-08-31 15:50:00,
2013-08-31 11:55:00,75.4,73.2,29.82,West,260,0.0,1.0,93,0.00,,,0.01,1744,WeatherCatV1.15B25,2013-08-31 15:55:00,
2013-08-31 12:00:00,75.3,73.1,29.81,West,260,0.0,1.0,93,0.00,,,0.01,1744,WeatherCatV1.15B25,2013-08-31 16:00:00,
2013-08-31 12:05:00,75.1,72.9,29.82,SW,227,0.0,1.0,93,0.00,,,0.01,1746,WeatherCatV1.15B25,2013-08-31 16:05:00,
2013-08-31 12:10:00,75.0,72.8,29.82,SW,227,0.0,0.0,93,0.00,,,0.01,1746,WeatherCatV1.15B25,2013-08-31 16:10:00,
2013-08-31 12:15:00,74.8,72.6,29.82,WSW,244,0.0,1.0,93,0.00,,,0.01,1747,WeatherCatV1.15B25,2013-08-31 16:15:00,
2013-08-31 12:20:00,74.6,72.4,29.82,WSW,244,0.0,0.0,93,0.00,,,0.01,1747,WeatherCatV1.15B25,2013-08-31 16:20:00,
2013-08-31 12:25:00,74.5,72.7,29.81,WSW,244,0.0,0.0,94,0.00,,,0.01,1749,WeatherCatV1.15B25,2013-08-31 16:25:00,
2013-08-31 12:30:00,74.5,72.7,29.81,South,171,0.0,0.0,94,0.00,,,0.01,1749,WeatherCatV1.15B25,2013-08-31 16:30:00,
2013-08-31 12:35:00,74.5,72.7,29.81,ESE,107,0.0,1.0,94,0.00,,,0.01,1751,WeatherCatV1.15B25,2013-08-31 16:35:00,
2013-08-31 12:40:00,74.5,72.7,29.81,ESE,103,0.0,0.0,94,0.00,,,0.01,1751,WeatherCatV1.15B25,2013-08-31 16:40:00,
2013-08-31 12:45:00,74.4,72.6,29.81,ESE,103,0.0,1.0,94,0.00,,,0.01,1751,WeatherCatV1.15B25,2013-08-31 16:45:00,
2013-08-31 12:50:00,74.4,72.9,29.81,SE,127,0.0,0.0,95,0.00,,,0.01,1753,WeatherCatV1.15B25,2013-08-31 16:50:00,
2013-08-31 12:55:00,74.5,73.0,29.81,SE,128,0.0,0.0,95,0.00,,,0.01,1753,WeatherCatV1.15B25,2013-08-31 16:55:00,
2013-08-31 13:00:00,74.6,72.8,29.81,WSW,246,0.0,1.0,94,0.00,,,0.01,1753,WeatherCatV1.15B25,2013-08-31 17:00:00,
2013-08-31 13:05:00,74.8,72.9,29.81,East,100,0.0,0.0,94,0.00,,,0.01,1753,WeatherCatV1.15B25,2013-08-31 17:05:00,
2013-08-31 13:10:00,75.2,73.7,29.80,WNW,286,0.0,2.0,95,0.00,,,0.01,1753,WeatherCatV1.15B25,2013-08-31 17:10:00,
2013-08-31 13:15:00,75.8,74.3,29.81,West,269,0.0,0.0,95,0.00,,,0.01,1753,WeatherCatV1.15B25,2013-08-31 17:15:00,
2013-08-31 13:20:00,76.2,74.0,29.80,NW,307,0.0,1.0,93,0.00,,,0.01,1753,WeatherCatV1.15B25,2013-08-31 17:20:00,
2013-08-31 13:25:00,76.4,73.9,29.80,NW,311,0.0,0.0,92,0.00,,,0.01,1753,WeatherCatV1.15B25,2013-08-31 17:25:00,
2013-08-31 13:30:00,76.3,73.8,29.80,NW,311,0.0,0.0,92,0.00,,,0.01,1753,WeatherCatV1.15B25,2013-08-31 17:30:00,
2013-08-31 13:35:00,76.2,73.7,29.80,NW,310,0.0,0.0,92,0.00,,,0.01,1753,WeatherCatV1.15B25,2013-08-31 17:35:00,
2013-08-31 13:40:00,76.1,73.6,29.80,ESE,117,0.0,0.0,92,0.00,,,0.01,1754,WeatherCatV1.15B25,2013-08-31 17:40:00,
2013-08-31 13:45:00,76.0,73.5,29.80,ESE,114,0.0,0.0,92,0.00,,,0.01,1754,WeatherCatV1.15B25,2013-08-31 17:45:00,
2013-08-31 13:50:00,75.8,73.6,29.80,WNW,288,0.0,0.0,93,0.00,,,0.01,1756,WeatherCatV1.15B25,2013-08-31 17:50:00,
2013-08-31 13:55:00,75.8,73.6,29.81,West,265,0.0,0.0,93,0.00,,,0.01,1756,WeatherCatV1.15B25,2013-08-31 17:55:00,
2013-08-31 14:00:00,75.7,73.5,29.81,West,263,0.0,1.0,93,0.00,,,0.01,1758,WeatherCatV1.15B25,2013-08-31 18:00:00,
2013-08-31 14:05:00,75.5,73.3,29.80,WSW,248,0.0,1.0,93,0.00,,,0.01,1758,WeatherCatV1.15B25,2013-08-31 18:05:00,
2013-08-31 14:10:00,75.4,73.2,29.80,WSW,249,0.0,0.0,93,0.00,,,0.01,1760,WeatherCatV1.15B25,2013-08-31 18:10:00,
2013-08-31 14:15:00,75.4,73.5,29.80,WSW,250,0.0,0.0,94,0.00,,,0.01,1760,WeatherCatV1.15B25,2013-08-31 18:15:00,
2013-08-31 14:20:00,75.5,73.6,29.80,WSW,256,0.0,1.0,94,0.00,,,0.01,1760,WeatherCatV1.15B25,2013-08-31 18:20:00,
2013-08-31 14:25:00,75.7,73.8,29.80,SE,135,0.0,0.0,94,0.00,,,0.01,1760,WeatherCatV1.15B25,2013-08-31 18:25:00,
2013-08-31 14:30:00,75.8,73.9,29.80,ESE,107,0.0,0.0,94,0.00,,,0.01,1760,WeatherCatV1.15B25,2013-08-31 18:30:00,
2013-08-31 14:35:00,75.9,73.7,29.79,West,269,0.0,2.0,93,0.00,,,0.01,1760,WeatherCatV1.15B25,2013-08-31 18:35:00,
2013-08-31 14:40:00,76.0,73.8,29.79,SSW,197,0.0,1.0,93,0.00,,,0.01,1760,WeatherCatV1.15B25,2013-08-31 18:40:00,
2013-08-31 14:45:00,76.0,73.8,29.79,WSW,240,0.0,0.0,93,0.00,,,0.01,1761,WeatherCatV1.15B25,2013-08-31 18:45:00,
2013-08-31 14:50:00,76.0,73.8,29.79,WSW,240,0.0,0.0,93,0.00,,,0.01,1761,WeatherCatV1.15B25,2013-08-31 18:50:00,
2013-08-31 14:55:00,76.0,73.8,29.79,West,276,0.0,0.0,93,0.00,,,0.01,1761,WeatherCatV1.15B25,2013-08-31 18:55:00,
2013-08-31 15:00:00,75.8,73.6,29.79,West,277,0.0,0.0,93,0.00,,,0.01,1761,WeatherCatV1.15B25,2013-08-31 19:00:00,
2013-08-31 15:05:00,75.7,73.5,29.79,ESE,109,0.0,2.0,93,0.00,,,0.01,1763,WeatherCatV1.15B25,2013-08-31 19:05:00,
2013-08-31 15:10:00,75.4,73.2,29.79,ESE,107,0.0,2.0,93,0.00,,,0.02,1763,WeatherCatV1.15B25,2013-08-31 19:10:00,
2013-08-31 15:15:00,75.3,73.4,29.79,WNW,284,0.0,0.0,94,0.00,,,0.02,1763,WeatherCatV1.15B25,2013-08-31 19:15:00,
2013-08-31 15:20:00,75.3,73.4,29.79,WSW,257,0.0,0.0,94,0.00,,,0.02,1763,WeatherCatV1.15B25,2013-08-31 19:20:00,
2013-08-31 15:25:00,75.2,73.3,29.79,ESE,120,0.0,0.0,94,0.00,,,0.02,1765,WeatherCatV1.15B25,2013-08-31 19:25:00,
2013-08-31 15:30:00,75.2,73.3,29.79,ESE,103,0.0,1.0,94,0.00,,,0.02,1765,WeatherCatV1.15B25,2013-08-31 19:30:00,
2013-08-31 15:35:00,75.0,73.1,29.78,ESE,103,0.0,0.0,94,0.00,,,0.02,1765,WeatherCatV1.15B25,2013-08-31 19:35:00,
2013-08-31 15:40:00,74.9,73.1,29.78,West,265,0.0,2.0,94,0.00,,,0.02,1765,WeatherCatV1.15B25,2013-08-31 19:40:00,
2013-08-31 15:45:00,74.8,72.9,29.78,East,90,0.0,1.0,94,0.00,,,0.02,1765,WeatherCatV1.15B25,2013-08-31 19:45:00,
2013-08-31 15:50:00,74.7,72.9,29.78,WNW,294,0.0,1.0,94,0.00,,,0.02,1767,WeatherCatV1.15B25,2013-08-31 19:50:00,
2013-08-31 15:55:00,74.6,72.8,29.78,WSW,256,0.0,0.0,94,0.00,,,0.02,1767,WeatherCatV1.15B25,2013-08-31 19:55:00,
2013-08-31 16:00:00,74.4,72.6,29.78,SSE,152,0.0,0.0,94,0.00,,,0.02,1767,WeatherCatV1.15B25,2013-08-31 20:00:00,
2013-08-31 16:05:00,74.4,72.9,29.78,WNW,292,0.0,0.0,95,0.00,,,0.02,1767,WeatherCatV1.15B25,2013-08-31 20:05:00,
2013-08-31 16:10:00,74.5,73.0,29.78,WNW,291,0.0,0.0,95,0.00,,,0.02,1767,WeatherCatV1.15B25,2013-08-31 20:10:00,
2013-08-31 16:15:00,74.7,73.2,29.78,WSW,251,0.0,1.0,95,0.00,,,0.02,1767,WeatherCatV1.15B25,2013-08-31 20:15:00,
2013-08-31 16:20:00,74.9,73.1,29.78,WSW,249,0.0,0.0,94,0.00,,,0.02,1767,WeatherCatV1.15B25,2013-08-31 20:20:00,
2013-08-31 16:25:00,75.1,73.2,29.78,SSW,211,0.0,0.0,94,0.00,,,0.02,1767,WeatherCatV1.15B25,2013-08-31 20:25:00,
2013-08-31 16:30:00,75.3,73.4,29.78,WSW,254,0.0,1.0,94,0.00,,,0.02,1767,WeatherCatV1.15B25,2013-08-31 20:30:00,
2013-08-31 16:35:00,75.4,73.2,29.78,WSW,250,0.0,0.0,93,0.00,,,0.02,1767,WeatherCatV1.15B25,2013-08-31 20:35:00,
2013-08-31 16:40:00,75.4,73.2,29.78,WSW,249,0.0,0.0,93,0.00,,,0.02,1767,WeatherCatV1.15B25,2013-08-31 20:40:00,
2013-08-31 16:45:00,75.4,73.2,29.78,WSW,252,0.0,1.0,93,0.00,,,0.02,1767,WeatherCatV1.15B25,2013-08-31 20:45:00,
2013-08-31 16:50:00,75.5,73.6,29.78,WSW,255,0.0,0.0,94,0.00,,,0.02,1767,WeatherCatV1.15B25,2013-08-31 20:50:00,
2013-08-31 16:55:00,75.5,73.6,29.78,WSW,247,0.0,1.0,94,0.00,,,0.02,1767,WeatherCatV1.15B25,2013-08-31 20:55:00,
2013-08-31 17:00:00,75.6,73.4,29.78,East,82,0.0,1.0,93,0.00,,,0.02,1767,WeatherCatV1.15B25,2013-08-31 21:00:00,
2013-08-31 17:05:00,75.7,73.5,29.78,ESE,108,0.0,0.0,93,0.00,,,0.02,1767,WeatherCatV1.15B25,2013-08-31 21:05:00,
2013-08-31 17:10:00,75.8,73.6,29.78,West,273,0.0,0.0,93,0.00,,,0.02,1767,WeatherCatV1.15B25,2013-08-31 21:10:00,
2013-08-31 17:15:00,75.8,73.6,29.78,West,273,0.0,0.0,93,0.00,,,0.02,1767,WeatherCatV1.15B25,2013-08-31 21:15:00,
2013-08-31 17:20:00,75.7,73.5,29.78,West,273,0.0,0.0,93,0.00,,,0.02,1767,WeatherCatV1.15B25,2013-08-31 21:20:00,
2013-08-31 17:25:00,75.6,73.4,29.78,West,273,0.0,1.0,93,0.00,,,0.02,1767,WeatherCatV1.15B25,2013-08-31 21:25:00,
2013-08-31 17:30:00,75.5,73.3,29.78,ESE,119,0.0,0.0,93,0.00,,,0.02,1767,WeatherCatV1.15B25,2013-08-31 21:30:00,
2013-08-31 17:35:00,75.3,73.1,29.78,SW,229,0.0,0.0,93,0.00,,,0.02,1768,WeatherCatV1.15B25,2013-08-31 21:35:00,
2013-08-31 17:40:00,75.4,73.5,29.78,NE,36,0.0,0.0,94,0.00,,,0.02,1768,WeatherCatV1.15B25,2013-08-31 21:40:00,
2013-08-31 17:45:00,75.3,73.4,29.78,NE,36,0.0,0.0,94,0.00,,,0.02,1768,WeatherCatV1.15B25,2013-08-31 21:45:00,
2013-08-31 17:50:00,75.2,73.3,29.78,WNW,294,0.0,1.0,94,0.00,,,0.02,1768,WeatherCatV1.15B25,2013-08-31 21:50:00,
2013-08-31 17:55:00,75.1,73.2,29.78,WNW,293,0.0,1.0,94,0.00,,,0.02,1768,WeatherCatV1.15B25,2013-08-31 21:55:00,
2013-08-31 18:00:00,75.1,73.6,29.78,West,269,0.0,0.0,95,0.00,,,0.02,1768,WeatherCatV1.15B25,2013-08-31 22:00:00,
2013-08-31 18:05:00,75.1,73.2,29.78,West,263,0.0,2.0,94,0.00,,,0.02,1768,WeatherCatV1.15B25,2013-08-31 22:05:00,
2013-08-31 18:10:00,75.2,73.7,29.78,West,263,0.0,0.0,95,0.00,,,0.02,1768,WeatherCatV1.15B25,2013-08-31 22:10:00,
2013-08-31 18:15:00,75.1,73.2,29.78,SW,226,0.0,1.0,94,0.00,,,0.02,1768,WeatherCatV1.15B25,2013-08-31 22:15:00,
2013-08-31 18:20:00,75.0,73.1,29.78,SW,226,0.0,0.0,94,0.00,,,0.02,1768,WeatherCatV1.15B25,2013-08-31 22:20:00,
2013-08-31 18:25:00,74.9,73.1,29.78,WNW,291,0.0,1.0,94,0.00,,,0.02,1768,WeatherCatV1.15B25,2013-08-31 22:25:00,
2013-08-31 18:30:00,74.8,72.9,29.78,WSW,248,0.0,0.0,94,0.00,,,0.02,1770,WeatherCatV1.15B25,2013-08-31 22:30:00,
2013-08-31 18:35:00,74.8,72.9,29.79,WSW,254,0.0,0.0,94,0.00,,,0.02,1770,WeatherCatV1.15B25,2013-08-31 22:35:00,
2013-08-31 18:40:00,74.7,73.2,29.79,West,271,0.0,0.0,95,0.00,,,0.02,1770,WeatherCatV1.15B25,2013-08-31 22:40:00,
2013-08-31 18:45:00,74.6,73.1,29.79,West,261,0.0,0.0,95,0.00,,,0.02,1770,WeatherCatV1.15B25,2013-08-31 22:45:00,
2013-08-31 18:50:00,74.5,73.0,29.79,West,259,0.0,0.0,95,0.00,,,0.02,1770,WeatherCatV1.15B25,2013-08-31 22:50:00,
2013-08-31 18:55:00,74.4,72.9,29.79,West,259,0.0,0.0,95,0.00,,,0.02,1770,WeatherCatV1.15B25,2013-08-31 22:55:00,
2013-08-31 19:00:00,74.3,72.8,29.78,WSW,244,0.0,2.0,95,0.00,,,0.02,1770,WeatherCatV1.15B25,2013-08-31 23:00:00,
2013-08-31 19:05:00,74.2,72.7,29.78,WSW,245,0.0,1.0,95,0.00,,,0.02,1770,WeatherCatV1.15B25,2013-08-31 23:05:00,
2013-08-31 19:10:00,74.2,72.7,29.77,SW,230,0.0,1.0,95,0.00,,,0.02,1770,WeatherCatV1.15B25,2013-08-31 23:10:00,
2013-08-31 19:15:00,74.2,72.7,29.77,WSW,240,0.0,0.0,95,0.00,,,0.02,1770,WeatherCatV1.15B25,2013-08-31 23:15:00,
2013-08-31 19:20:00,74.2,72.7,29.78,WSW,240,0.0,0.0,95,0.00,,,0.02,1770,WeatherCatV1.15B25,2013-08-31 23:20:00,
2013-08-31 19:25:00,74.1,72.6,29.79,WSW,240,0.0,0.0,95,0.00,,,0.02,1770,WeatherCatV1.15B25,2013-08-31 23:25:00,
2013-08-31 19:30:00,74.0,72.5,29.79,WSW,244,0.0,0.0,95,0.00,,,0.02,1770,WeatherCatV1.15B25,2013-08-31 23:30:00,
2013-08-31 19:35:00,73.9,72.4,29.79,WSW,244,0.0,0.0,95,0.00,,,0.02,1770,WeatherCatV1.15B25,2013-08-31 23:35:00,
2013-08-31 19:40:00,73.9,72.4,29.79,West,270,0.0,0.0,95,0.00,,,0.02,1770,WeatherCatV1.15B25,2013-08-31 23:40:00,
2013-08-31 19:45:00,73.9,72.4,29.78,WSW,253,0.0,0.0,95,0.00,,,0.02,1770,WeatherCatV1.15B25,2013-08-31 23:45:00,
2013-08-31 19:50:00,73.9,72.4,29.77,WSW,258,0.0,0.0,95,0.00,,,0.02,1770,WeatherCatV1.15B25,2013-08-31 23:50:00,
2013-08-31 19:55:00,73.9,72.4,29.77,West,264,0.0,0.0,95,0.00,,,0.02,1768,WeatherCatV1.15B25,2013-08-31 23:55:00,
2013-08-31 20:00:00,73.9,72.4,29.78,West,264,0.0,0.0,95,0.00,,,0.02,1768,WeatherCatV1.15B25,2013-09-01 00:00:00,
2013-08-31 20:05:00,73.8,72.3,29.78,WSW,256,0.0,0.0,95,0.00,,,0.02,1768,WeatherCatV1.15B25,2013-09-01 00:05:00,
2013-08-31 20:10:00,73.7,72.2,29.78,WSW,249,0.0,0.0,95,0.00,,,0.02,1768,WeatherCatV1.15B25,2013-09-01 00:10:00,
2013-08-31 20:15:00,73.7,72.2,29.78,SSW,202,0.0,0.0,95,0.00,,,0.02,1768,WeatherCatV1.15B25,2013-09-01 00:15:00,
2013-08-31 20:20:00,73.6,72.1,29.78,WSW,238,0.0,0.0,95,0.00,,,0.02,1768,WeatherCatV1.15B25,2013-09-01 00:20:00,
2013-08-31 20:25:00,73.6,72.1,29.78,WSW,238,0.0,0.0,95,0.00,,,0.02,1768,WeatherCatV1.15B25,2013-09-01 00:25:00,
2013-08-31 20:30:00,73.5,72.0,29.78,WSW,238,0.0,0.0,95,0.00,,,0.02,1768,WeatherCatV1.15B25,2013-09-01 00:30:00,
2013-08-31 20:35:00,73.5,72.0,29.78,West,278,0.0,0.0,95,0.00,,,0.02,1768,WeatherCatV1.15B25,2013-09-01 00:35:00,
2013-08-31 20:40:00,73.4,71.9,29.78,SW,226,0.0,0.0,95,0.00,,,0.02,1768,WeatherCatV1.15B25,2013-09-01 00:40:00,
2013-08-31 20:45:00,73.3,72.1,29.78,NE,55,0.0,1.0,96,0.00,,,0.02,1768,WeatherCatV1.15B25,2013-09-01 00:45:00,
2013-08-31 20:50:00,73.3,72.1,29.78,West,273,0.0,0.0,96,0.00,,,0.02,1768,WeatherCatV1.15B25,2013-09-01 00:50:00,
2013-08-31 20:55:00,73.3,72.1,29.79,South,178,0.0,0.0,96,0.00,,,0.02,1768,WeatherCatV1.15B25,2013-09-01 00:55:00,
2013-08-31 21:00:00,73.2,72.0,29.79,SW,227,0.0,1.0,96,0.00,,,0.02,1768,WeatherCatV1.15B25,2013-09-01 01:00:00,
2013-08-31 21:05:00,73.2,72.0,29.80,SW,227,0.0,0.0,96,0.00,,,0.02,1767,WeatherCatV1.15B25,2013-09-01 01:05:00,
2013-08-31 21:10:00,73.2,72.0,29.80,SW,227,0.0,0.0,96,0.00,,,0.02,1767,WeatherCatV1.15B25,2013-09-01 01:10:00,
2013-08-31 21:15:00,73.2,72.0,29.80,SW,227,0.0,0.0,96,0.00,,,0.02,1767,WeatherCatV1.15B25,2013-09-01 01:15:00,
2013-08-31 21:20:00,73.2,72.0,29.81,SW,227,0.0,0.0,96,0.00,,,0.02,1767,WeatherCatV1.15B25,2013-09-01 01:20:00,
2013-08-31 21:25:00,73.1,72.2,29.81,SW,227,0.0,0.0,97,0.00,,,0.02,1767,WeatherCatV1.15B25,2013-09-01 01:25:00,
2013-08-31 21:30:00,73.1,72.2,29.81,SW,214,0.0,0.0,97,0.00,,,0.02,1767,WeatherCatV1.15B25,2013-09-01 01:30:00,
2013-08-31 21:35:00,73.1,72.2,29.81,SW,217,0.0,0.0,97,0.00,,,0.02,1767,WeatherCatV1.15B25,2013-09-01 01:35:00,
2013-08-31 21:40:00,73.1,72.2,29.81,SW,217,0.0,0.0,97,0.00,,,0.02,1767,WeatherCatV1.15B25,2013-09-01 01:40:00,
2013-08-31 21:45:00,73.1,72.2,29.82,SW,217,0.0,0.0,97,0.00,,,0.02,1767,WeatherCatV1.15B25,2013-09-01 01:45:00,
2013-08-31 21:50:00,73.1,72.2,29.82,SW,217,0.0,0.0,97,0.00,,,0.02,1767,WeatherCatV1.15B25,2013-09-01 01:50:00,
2013-08-31 21:55:00,73.1,72.2,29.81,SW,217,0.0,0.0,97,0.00,,,0.02,1767,WeatherCatV1.15B25,2013-09-01 01:55:00,
2013-08-31 22:00:00,73.0,72.1,29.82,SW,217,0.0,0.0,97,0.00,,,0.02,1765,WeatherCatV1.15B25,2013-09-01 02:00:00,
2013-08-31 22:05:00,73.0,72.1,29.82,SW,217,0.0,0.0,97,0.00,,,0.02,1765,WeatherCatV1.15B25,2013-09-01 02:05:00,
2013-08-31 22:10:00,73.0,72.1,29.82,SW,217,0.0,0.0,97,0.00,,,0.02,1765,WeatherCatV1.15B25,2013-09-01 02:10:00,
2013-08-31 22:15:00,73.0,72.1,29.81,SW,217,0.0,0.0,97,0.00,,,0.02,1765,WeatherCatV1.15B25,2013-09-01 02:15:00,
2013-08-31 22:20:00,73.0,72.1,29.82,WSW,238,0.0,0.0,97,0.00,,,0.02,1765,WeatherCatV1.15B25,2013-09-01 02:20:00,
2013-08-31 22:25:00,73.0,72.1,29.82,SW,234,1.0,1.0,97,0.00,,,0.02,1765,WeatherCatV1.15B25,2013-09-01 02:25:00,
2013-08-31 22:30:00,73.0,72.1,29.82,West,273,0.0,0.0,97,0.00,,,0.02,1765,WeatherCatV1.15B25,2013-09-01 02:30:00,
2013-08-31 22:35:00,73.0,72.1,29.82,WNW,296,0.0,1.0,97,0.00,,,0.02,1765,WeatherCatV1.15B25,2013-09-01 02:35:00,
2013-08-31 22:40:00,73.0,72.1,29.82,West,272,0.0,0.0,97,0.00,,,0.02,1765,WeatherCatV1.15B25,2013-09-01 02:40:00,
2013-08-31 22:45:00,73.0,72.1,29.82,SW,214,0.0,1.0,97,0.00,,,0.02,1763,WeatherCatV1.15B25,2013-09-01 02:45:00,
2013-08-31 22:50:00,73.1,72.2,29.82,SW,214,0.0,0.0,97,0.00,,,0.02,1763,WeatherCatV1.15B25,2013-09-01 02:50:00,
2013-08-31 22:55:00,73.1,72.2,29.82,WNW,296,0.0,0.0,97,0.00,,,0.02,1763,WeatherCatV1.15B25,2013-09-01 02:55:00,
2013-08-31 23:00:00,73.1,72.2,29.82,West,269,0.0,0.0,97,0.00,,,0.02,1763,WeatherCatV1.15B25,2013-09-01 03:00:00,
2013-08-31 23:05:00,73.1,72.2,29.82,WSW,250,0.0,1.0,97,0.00,,,0.02,1763,WeatherCatV1.15B25,2013-09-01 03:05:00,
2013-08-31 23:10:00,73.1,72.2,29.82,WNW,288,1.0,1.0,97,0.00,,,0.02,1763,WeatherCatV1.15B25,2013-09-01 03:10:00,
2013-08-31 23:15:00,73.0,72.1,29.82,WNW,288,0.0,0.0,97,0.00,,,0.02,1763,WeatherCatV1.15B25,2013-09-01 03:15:00,
2013-08-31 23:20:00,73.0,72.1,29.81,WNW,286,0.0,0.0,97,0.00,,,0.02,1763,WeatherCatV1.15B25,2013-09-01 03:20:00,
2013-08-31 23:25:00,73.0,72.1,29.81,WNW,286,0.0,0.0,97,0.00,,,0.02,1761,WeatherCatV1.15B25,2013-09-01 03:25:00,
2013-08-31 23:30:00,72.9,71.7,29.81,WNW,286,0.0,0.0,96,0.00,,,0.02,1761,WeatherCatV1.15B25,2013-09-01 03:30:00,
2013-08-31 23:35:00,72.9,72.0,29.81,ENE,78,0.0,0.0,97,0.00,,,0.02,1761,WeatherCatV1.15B25,2013-09-01 03:35:00,
2013-08-31 23:40:00,72.9,72.0,29.81,ENE,78,0.0,0.0,97,0.00,,,0.02,1761,WeatherCatV1.15B25,2013-09-01 03:40:00,
2013-08-31 23:45:00,72.8,71.9,29.81,ENE,78,0.0,0.0,97,0.00,,,0.02,1761,WeatherCatV1.15B25,2013-09-01 03:45:00,
2013-08-31 23:50:00,72.8,71.9,29.81,SSW,212,0.0,0.0,97,0.00,,,0.02,1761,WeatherCatV1.15B25,2013-09-01 03:50:00,
2013-08-31 23:55:00,72.8,71.9,29.80,SW,228,0.0,2.0,97,0.00,,,0.02,1761,WeatherCatV1.15B25,2013-09-01 03:55:00,